Location: Chiroubles
(46.1812°N, 4.6660°E)
Time: 15:21:17
(UTC+00:00)

Cosmos 2360 Rocket - Pass Details

Date: 15 August 2020
Orbit: 833 x 845 km, 71.0° (Epoch: 22 September)

Event Time Altitude Azimuth Distance (km) Brightness Sun altitude
Rises 20:21:18 0° 338° (NNW) 3,415 6.5 -14.6°
Reaches altitude 10° 20:24:00 10° 347° (NNW) 2,476 5.4 -14.9°
Maximum altitude 20:29:10 35° 53° (NE) 1,342 3.1 -15.6°
Enters shadow 20:32:09 21° 103° (ESE) 1,799 3.4 -16.0°
